Jackson Hawkins Field, MS

11:20 PM CDT on May 27, 2017 (GMT -0500)
Hawkins

Weather History for KHKS - November, 2013

Change the Weather History Date:

Thursday, November 21, 2013

  Actual Average (KJAN) Record (KJAN)
Temperature  
Mean Temperature 62 °F -  
Max Temperature 73 °F 65 °F 82 °F (1913)
Min Temperature 51 °F 40 °F 21 °F (1937)
Degree Days  
Heating Degree Days 3    
Growing Degree Days 12 (Base 50)    
Moisture  
Dew Point 55 °F    
Average Humidity 80    
Maximum Humidity 93    
Minimum Humidity 62    
Precipitation  
Precipitation 0.00 in - - ()
Sea Level Pressure  
Sea Level Pressure 30.17 in    
Wind  
Wind Speed 9 mph (SE)    
Max Wind Speed 13 mph    
Max Gust Speed -    
Visibility 8 miles    
Events      
Averages and records for this station are not official NWS values.
T = Trace of Precipitation, MM = Missing Value Source: NWS Daily Summary

Daily Weather History Graph

Daily Weather History Graph

Search for Another Location

Airport or City:

Trip Planner

Search our weather history database for the weather conditions in past years. The results will help you decide how hot, cold, wet, or windy it might be!

Date:

Astronomy

Nov. 21, 2013 Rise Set
Actual Time 6:35 AM CST 4:57 PM CST
Civil Twilight 6:09 AM CST 5:23 PM CST
Nautical Twilight 5:39 AM CST 5:53 PM CST
Astronomical Twilight 5:10 AM CST 6:23 PM CST
Moon 8:32 PM CST (11/21) 9:43 AM CST (11/21)
Length of Visible Light 11h 14m
Length of Day
10h 21m
Waning Gibbous, 85% of the Moon is Illuminated
Nov 21
Waning Gibbous
Nov 25
Last Quarter
Dec 2
New
Dec 9
First Quarter
Dec 17
Full

Hourly Weather History & Observations

Time (CST) Temp. Dew Point Humidity Pressure Visibility Wind Dir Wind Speed Gust Speed Precip Events Conditions
12:53 AM 53.1 °F 46.9 °F 80% 30.12 in 10.0 mi ESE 8.1 mph - N/A   Clear
1:53 AM 54.0 °F 48.9 °F 83% 30.13 in 10.0 mi SE 8.1 mph - N/A   Clear
2:53 AM 53.1 °F 48.9 °F 86% 30.13 in 10.0 mi ESE 10.4 mph - N/A   Clear
3:53 AM 53.1 °F 48.9 °F 86% 30.14 in 10.0 mi ESE 8.1 mph - N/A   Clear
4:53 AM 53.1 °F 48.9 °F 86% 30.15 in 10.0 mi ESE 8.1 mph - N/A   Partly Cloudy
5:53 AM 52.0 °F 48.9 °F 89% 30.15 in 10.0 mi ESE 8.1 mph - N/A   Clear
6:11 AM 53.6 °F 48.2 °F 82% 30.17 in 10.0 mi SE 8.1 mph - N/A   Scattered Clouds
6:19 AM 51.8 °F 48.2 °F 88% 30.17 in 10.0 mi ESE 6.9 mph - N/A   Mostly Cloudy
6:31 AM 51.8 °F 48.2 °F 88% 30.17 in 9.0 mi ESE 6.9 mph - N/A   Scattered Clouds
6:53 AM 52.0 °F 48.9 °F 89% 30.17 in 7.0 mi SE 6.9 mph - N/A   Partly Cloudy
7:10 AM 53.6 °F 50.0 °F 88% 30.19 in 7.0 mi SE 8.1 mph - N/A   Mostly Cloudy
7:53 AM 54.0 °F 52.0 °F 93% 30.19 in 4.0 mi SE 8.1 mph - N/A   Overcast
8:53 AM 57.0 °F 53.1 °F 87% 30.20 in 6.0 mi SE 8.1 mph - N/A   Overcast
9:03 AM 57.2 °F 53.6 °F 88% 30.22 in 7.0 mi SE 10.4 mph - N/A   Overcast
9:34 AM 60.8 °F 53.6 °F 77% 30.22 in 9.0 mi SE 11.5 mph - N/A   Overcast
9:53 AM 61.0 °F 55.0 °F 81% 30.20 in 9.0 mi SE 10.4 mph - N/A   Overcast
10:53 AM 64.9 °F 55.9 °F 73% 30.19 in 10.0 mi SE 8.1 mph - N/A   Overcast
11:50 AM 66.2 °F 57.2 °F 73% 30.18 in 10.0 mi SE 8.1 mph - N/A   Overcast
11:53 AM 66.9 °F 57.0 °F 70% 30.17 in 10.0 mi SE 9.2 mph - N/A   Overcast
12:53 PM 72.0 °F 59.0 °F 64% 30.14 in 10.0 mi SE 8.1 mph - N/A   Mostly Cloudy
1:04 PM 71.6 °F 59.0 °F 64% 30.15 in 10.0 mi SSE 9.2 mph - N/A   Scattered Clouds
1:30 PM 73.4 °F 60.8 °F 65% 30.14 in 10.0 mi ESE 9.2 mph - N/A   Mostly Cloudy
1:53 PM 73.9 °F 60.1 °F 62% 30.12 in 10.0 mi SE 10.4 mph - N/A   Mostly Cloudy
2:01 PM 71.6 °F 59.0 °F 64% 30.13 in 10.0 mi SSE 11.5 mph - N/A   Scattered Clouds
2:16 PM 71.6 °F 59.0 °F 64% 30.13 in 10.0 mi SSE 12.7 mph - N/A   Mostly Cloudy
2:53 PM 71.1 °F 59.0 °F 66% 30.12 in 10.0 mi SSE 10.4 mph - N/A   Mostly Cloudy
3:53 PM 68.0 °F 59.0 °F 73% 30.13 in 10.0 mi SE 10.4 mph - N/A   Overcast
4:36 PM 66.2 °F 60.8 °F 83% 30.16 in 10.0 mi ESE 6.9 mph - N/A   Overcast
4:53 PM 66.0 °F 60.1 °F 81% 30.15 in 9.0 mi ESE 8.1 mph - N/A   Overcast
5:53 PM 64.0 °F 59.0 °F 84% 30.15 in 8.0 mi SE 9.2 mph - 0.00 in   Overcast
6:53 PM 63.0 °F 57.9 °F 84% 30.17 in 6.0 mi SE 9.2 mph - N/A   Haze
7:38 PM 62.6 °F 57.2 °F 82% 30.20 in 6.0 mi SE 6.9 mph - N/A   Haze
7:53 PM 63.0 °F 59.0 °F 87% 30.19 in 6.0 mi ESE 6.9 mph - N/A   Overcast
8:53 PM 62.1 °F 59.0 °F 90% 30.20 in 5.0 mi SSE 9.2 mph - N/A   Overcast
9:53 PM 63.0 °F 59.0 °F 87% 30.19 in 5.0 mi SE 6.9 mph - N/A   Overcast
10:41 PM 62.6 °F 59.0 °F 88% 30.21 in 6.0 mi ESE 6.9 mph - N/A   Overcast
10:53 PM 63.0 °F 59.0 °F 87% 30.19 in 6.0 mi SE 8.1 mph - N/A   Overcast
11:53 PM 63.0 °F 59.0 °F 87% 30.18 in 7.0 mi SE 8.1 mph - N/A   Overcast